Showing default

OPS 9327 (IDSCS 14), 2654

Orbit data source: Space-Track

OPS 9327 (IDSCS 14), 2654 is a payload satellite owned by USAF SSD (US) in GEO that was launched on Wed, 18 Jan 1967 UTC via a TITAN IIIC launch vehicle from the Air Force Eastern Test Range (AFETR). Payload-class satellites include a variety of spacecraft equipped with specific instruments for various scientific and technological missions. These include communications satellites like Starlink; space stations such as the ISS; scientific satellites like the Hubble; Earth observation satellites from companies like Planet Labs, Umbra, and HawkEye 360; GPS; miniature CubeSats for education and research; and military/defense satellites.

Not visible in the next 10 days
Identifier
2654, 1967-003G
Orbit
GEO
Last TLE update
11 hours ago
Origin
Manufacturer
Philco-Ford WDL
Mission
Non-operational Defense Communications
Bus & Motor
IDCSP, Unknown motor
Mass
45 kg wet, 45 kg dry
Launch date (UTC)
1967-01-18 (58 years ago)
Launch vehicle
TITAN IIIC
Launch site
Air Force Eastern Test Range (AFETR)
Object type
Payload
Rocket body
Debris
Shape & HBR
Ico Poly, 0.9 m
Radar Cross Section
0.926 m², Medium (>0.1 m² and < 1m²)

Expand to show TLE details & history

TLE from 11 hours ago
0 OPS 9327 (IDSCS 14)
1 02654U 67003G   25181.92247807 -.00000130  00000-0  00000-0 0  9994
2 02654   7.4759  50.3041 0058544  41.0272 247.0086  1.07511994135694
Epoch: 2025-06-30T22:08Z
TLE epoch observation values (Epoch: 2025-06-30T22:08:22.105Z)
Latitude
-7.15142°
Longitude
86.55895°
Altitude
33,966.165 km
Speed
3.14 km/s
True Right ascension
22h 31m 30s
True Declination
-7° 08' 38"
Sunlit
Object was in daylight at epoch
Visualization orbit readout
Latitude
7.32068°
Longitude
-98.45388°
Altitude
33,756.159 km
Speed
3.156 km/s
Apparent Right ascension
10h 00m 55s
Apparent Declination
1° 20' 30"
Sunlit
Object is in daylight
Visualization observer readout
Local Sidereal Time
20:33:14
Azimuth
328.668° NNW
Elevation
-44.132°
Doppler factor
1
Orbital elements
Apogee altitude
34,108.415 km
Perigee altitude
33,637.125 km
Semi-major axis
40,250.907 km
Eccentricity
0.00585
Inclination
7.4759°
RAAN
50.3041°
Arg. of periapsis
41.0272°
True anomaly
Unknown
Mean anomaly
247.0086°
Eccentric anomaly
Unknown
Mean motion
0.26877 °/min
Orbital period
1,339.44 mins
BSTAR
0
Loading historical data...
2654 neighbors
Loading maneuver chart data...
Loading SW <> Apogee altitude chart data...
Loading historical data...
Loading historical data...
Loading historical data...
Loading historical data...
Loading historical data...
Loading historical data...
Loading historical data...

OPS 9327 (IDSCS 14) Visibility

Observer location: undefined°, undefined°

OPS 9327 (IDSCS 14) is likely not visible in the next few days
Span
Click to sort rows by Start time (UTC) header in descending order
Start Az.
Max El. time (UTC)
Max El. Az.
Max El.
End time (UTC)
End Az.
|